This is the latest recevied weather packets stored in our database for station/object N0LTM. If no packets are shown the sender has not sent any weather packets the latest 10 day(s).
| Time | Temp. | Humidity | Pressure | Rain* | Wind** | Luminosity | Snow |
|---|---|---|---|---|---|---|---|
| 1777530653 | 1.67° C | 91% | 1016.9 hPa | 0 mm | - | - | - |
| 1777529151 | 2.22° C | 91% | 1017 hPa | 0 mm | - | - | - |
| 1777526155 | 3.33° C | 90% | 1017.1 hPa | 0 mm | - | - | - |
| 1777525852 | 3.33° C | 90% | 1017.2 hPa | 0 mm | - | - | - |
| 1777524056 | 2.78° C | 88% | 1017.3 hPa | 0 mm | - | - | - |
| 1777521953 | 3.33° C | 86% | 1017.2 hPa | 0 mm | - | - | - |
| 1777521352 | 3.89° C | 86% | 1017.2 hPa | 0 mm | - | - | - |
| 1777520760 | 3.89° C | 85% | 1017.2 hPa | 0 mm | - | - | - |
| 1777520452 | 3.89° C | 84% | 1017.3 hPa | 0 mm | - | - | - |
| 1777518070 | 5.56° C | 82% | 1017.4 hPa | 0 mm | - | - | - |
| 1777517156 | 5.56° C | 82% | 1017.5 hPa | 0 mm | - | - | - |
| 1777514752 | 6.67° C | 81% | 1017.3 hPa | 0 mm | - | - | - |
| 1777513851 | 7.22° C | 80% | 1017.2 hPa | 0 mm | - | - | - |
| 1777510856 | 7.78° C | 74% | 1016.4 hPa | 0 mm | - | - | - |
| 1777509956 | 8.33° C | 70% | 1016.5 hPa | 0 mm | - | - | - |
| 1777508752 | 8.33° C | 68% | 1016.1 hPa | 0 mm | - | - | - |
| 1777506054 | 8.89° C | 66% | 1015.9 hPa | 0 mm | - | - | - |
| 1777504853 | 9.44° C | 67% | 1015.8 hPa | 0 mm | - | - | - |
| 1777504556 | 9.44° C | 67% | 1015.8 hPa | 0 mm | - | - | - |
| 1777503055 | 9.44° C | 66% | 1015.4 hPa | 0 mm | - | - | - |
| 1777498257 | 10.56° C | 57% | 1014.9 hPa | 0 mm | - | - | - |
| 1777497357 | 10.56° C | 70% | 1014.9 hPa | 0 mm | - | - | - |
| 1777497054 | 10.56° C | 71% | 1014.8 hPa | 0 mm | - | - | - |
| 1777496754 | 10° C | 71% | 1014.8 hPa | 0 mm | - | - | - |
| 1777495560 | 10.56° C | 66% | 1015.1 hPa | 0 mm | - | - | - |
* Rain latest hour (hover to see other rain measurements)
** Current wind speed in m/s (hover to see current wind gust speed)